Location: Unspecified
(0.0000°N, 0.0000°E)
Time: 10:35:58
(UTC+00:00)

COSMOS-2414 - Pass Details

Date: 29 April 2024
Orbit: 908 x 965 km, 83.0° (Epoch: 29 May)

Event Time Altitude Azimuth Distance (km) Brightness Sun altitude
Exits shadow 04:44:25 15° 301° (WNW) 2,237 7.5 -17.6°
Drops below altitude 10° 04:46:04 10° 316° (NW) 2,585 7.9 -17.2°
Sets 04:49:17 0° 334° (NNW) 3,521 8.8 -16.5°
